EW7117 Weather Reports


time (UTC)temp
C
wind
direction
speed
KPH
gust
KPH
rain 1hr
cm
rain 24hr
cm
rain mn
cm
humidity
%
barometer
mb
20260504044557 8 237 1.6 14.5 0.00 0.00 0.00 81 1006.8
20260504043044 8 246 3.2 12.9 0.00 0.00 0.00 81 1006.7
20260504041540 8 217 0.0 14.5 0.00 0.00 0.00 79 1006.8
20260504040036 8 240 1.6 11.3 0.00 0.00 0.00 77 1006.7
20260504034540 8 141 0.0 12.9 0.00 0.00 0.00 74 1006.6
20260504033049 8 236 4.8 19.3 0.00 0.00 0.00 72 1006.7
20260504031534 8 240 4.8 24.1 0.00 0.00 0.00 69 1006.7
20260504030034 9 221 0.0 11.3 0.00 0.00 0.00 69 1006.8
20260504024533 9 207 3.2 19.3 0.00 0.00 0.00 69 1006.9
20260504023031 9 194 0.0 14.5 0.00 0.00 0.00 68 1007.1
20260504021535 8 209 0.0 16.1 0.00 0.00 0.00 65 1007.1
20260504020031 8 254 1.6 11.3 0.00 0.00 0.00 65 1007.1
20260504014529 8 221 0.0 16.1 0.00 0.00 0.00 62 1007.3
20260504013034 8 228 0.0 11.3 0.00 0.00 0.00 60 1007.5
20260504011526 9 229 0.0 14.5 0.00 0.00 0.00 56 1007.3
20260504010025 9 237 3.2 16.1 0.00 0.00 0.00 52 1007.2
20260504004525 9 245 1.6 17.7 0.00 0.00 0.00 52 1007.1
20260504003024 10 254 1.6 16.1 0.00 0.00 0.00 50 1007.1
20260504001524 10 238 1.6 19.3 0.00 0.00 0.00 49 1007.0
20260504000023 10 244 0.0 12.9 0.00 0.00 0.00 48 1007.0
20260503234522 10 254 1.6 17.7 0.00 0.00 0.00 47 1006.9
20260503233021 10 249 4.8 20.9 0.00 0.00 0.00 44 1007.0
20260503231519 11 243 4.8 20.9 0.00 0.00 0.00 42 1006.9
20260503230023 11 221 3.2 17.7 0.00 0.00 0.00 41 1007.0
20260503224518 11 240 4.8 22.5 0.00 0.00 0.00 41 1006.9
20260503223017 11 207 3.2 19.3 0.00 0.00 0.00 50 1007.0
20260503221527 11 222 1.6 20.9 0.00 0.00 0.00 48 1007.1
20260503220015 11 238 6.4 22.5 0.00 0.00 0.00 47 1007.1
20260503214553 11 272 1.6 19.3 0.00 0.00 0.00 48 1007.2
20260503213052 11 188 3.2 27.4 0.00 0.00 0.00 48 1007.3
20260503211605 11 227 1.6 27.4 0.00 0.00 0.00 45 1007.3
20260503210054 11 230 3.2 20.9 0.00 0.00 0.00 46 1007.4
20260503204553 11 215 3.2 27.4 0.00 0.00 0.00 44 1007.6
20260503203046 11 223 1.6 20.9 0.00 0.00 0.00 43 1007.8
20260503201547 11 238 6.4 20.9 0.00 0.00 0.00 43 1007.8
20260503200045 11 224 6.4 25.7 0.00 0.00 0.00 40 1007.9
20260503194547 11 313 8.0 22.5 0.00 0.00 0.00 41 1008.0
20260503193049 11 227 6.4 25.7 0.00 0.00 0.00 42 1008.2
20260503191536 11 235 11.3 25.7 0.00 0.00 0.00 41 1008.4
20260503190032 11 238 4.8 20.9 0.00 0.00 0.00 43 1008.6
20260503184529 11 302 4.8 19.3 0.00 0.00 0.00 46 1008.6
20260503183035 11 259 3.2 16.1 0.00 0.00 0.00 43 1008.7
20260503181545 11 209 1.6 17.7 0.00 0.00 0.00 44 1008.8
20260503180024 11 218 1.6 16.1 0.00 0.00 0.00 44 1008.8
20260503174521 11 231 6.4 17.7 0.00 0.00 0.00 46 1009.0
20260503173039 10 258 6.4 19.3 0.00 0.00 0.00 46 1009.2
20260503171518 10 229 0.0 14.5 0.00 0.00 0.00 45 1009.3
20260503150104 8 254 3.2 16.1 0.00 0.03 0.00 51 1010.9
20260503081536 3 248 0.0 0.0 0.00 0.05 0.00 81 1011.4
20260503071625 4 248 0.0 0.0 0.00 0.05 0.00 83 1011.3
20260503060109 4 248 0.0 0.0 0.00 0.05 0.00 84 1011.5
20260503054544 4 248 0.0 0.0 0.00 0.05 0.00 83 1011.5